period_start,C,m1,H,J0,J1,J2,J3,J4,J5,JA,JB,JC,JD,JJ,JK,JN,#
2015-04-14 00:02:07,0.11,0.47,0.00,23.92,26.98,29.82,4.77,26.33,1015.64,2034.67,3250.57,3180.31,3450.94,350.14,346.46,2.80,0000 0000 0000 0000 000000
2015-04-14 00:07:08,0.17,0.48,0.00,23.80,26.98,29.80,4.74,26.46,1015.64,2034.61,3248.55,3178.94,3449.54,349.60,346.39,2.83,0000 0000 0000 0000 000000
2015-04-14 00:12:10,0.16,0.48,0.00,23.75,26.97,29.71,4.78,26.38,1015.65,2034.82,3246.67,3177.73,3448.18,349.88,346.35,2.86,0000 0000 0000 0000 000000
2015-04-14 00:17:11,0.15,0.49,0.00,24.02,26.97,29.61,4.77,26.35,1015.64,2034.97,3244.90,3176.61,3446.87,350.07,346.24,2.89,0000 0000 0000 0000 000000
2015-04-14 00:22:13,0.15,0.49,0.00,24.03,26.97,29.54,4.77,26.35,1015.65,2034.98,3242.93,3175.24,3445.41,350.19,346.35,2.92,0000 0000 0000 0000 000000
2015-04-14 00:27:14,0.17,0.50,0.00,24.16,26.97,29.57,4.77,26.35,1015.65,2034.98,3240.72,3173.75,3443.83,350.15,346.05,2.95,0000 0000 0000 0000 000000
2015-04-14 00:32:15,0.15,0.50,0.00,24.66,26.97,29.60,4.76,26.32,1015.66,2034.95,3238.59,3172.30,3442.19,350.13,345.63,2.98,0000 0000 0000 0000 000000
2015-04-14 00:37:16,0.17,0.51,0.00,24.37,26.97,29.68,4.78,26.37,1015.65,2034.85,3236.30,3170.67,3440.51,350.40,346.15,3.00,0000 0000 0000 0000 000000
2015-04-14 00:42:17,0.15,0.51,0.00,24.02,26.99,29.82,4.79,26.26,1015.67,2034.85,3234.17,3169.28,3438.89,350.63,346.89,3.03,0000 0000 0000 0000 000000
2015-04-14 00:47:19,0.15,0.52,0.00,23.87,26.99,29.84,4.81,26.38,1015.66,2034.77,3231.99,3167.84,3437.24,350.72,346.95,3.06,0000 0000 0000 0000 000000
2015-04-14 00:52:20,0.16,0.52,0.00,23.79,26.98,29.75,4.71,26.42,1015.66,2034.72,3229.86,3166.48,3435.71,349.67,346.08,3.09,0000 0000 0000 0000 000000
2015-04-14 00:57:21,0.19,0.53,0.00,23.73,26.97,29.69,4.77,26.42,1015.67,2034.89,3227.72,3164.98,3434.18,349.80,346.27,3.12,0000 0000 0000 0000 000000
2015-04-14 01:02:23,0.18,0.53,0.00,24.09,26.96,29.51,4.74,26.38,1015.66,2034.96,3225.49,3163.47,3432.50,349.84,345.89,3.15,0000 0000 0000 0000 000000
2015-04-14 01:07:24,0.17,0.54,0.00,24.10,26.95,29.49,4.71,26.39,1015.67,2034.95,3223.30,3161.91,3430.77,349.89,345.94,3.18,0000 0000 0000 0000 000000
2015-04-14 01:12:25,0.18,0.54,0.00,24.44,26.95,29.53,4.71,26.38,1015.69,2034.99,3220.98,3160.34,3429.07,349.55,345.25,3.21,0000 0000 0000 0000 000000
2015-04-14 01:17:27,0.18,0.55,0.00,24.70,26.96,29.59,4.72,26.34,1015.69,2034.97,3218.67,3158.66,3427.28,350.16,345.54,3.24,0000 0000 0000 0000 000000
2015-04-14 01:22:28,0.17,0.55,0.00,24.25,26.97,29.68,4.69,26.37,1015.69,2034.95,3216.42,3157.12,3425.55,349.31,345.15,3.27,0000 0000 0000 0000 000000
2015-04-14 01:27:29,0.16,0.56,0.00,24.01,26.97,29.79,4.72,26.52,1015.67,2034.78,3213.97,3155.49,3423.73,349.22,345.37,3.30,0000 0000 0000 0000 000000
2015-04-14 01:32:31,0.20,0.56,0.00,23.91,26.97,29.76,4.82,26.39,1015.67,2034.76,3211.52,3153.84,3421.89,350.80,347.12,3.33,0000 0000 0000 0000 000000
2015-04-14 01:37:32,0.19,0.57,0.00,23.82,26.95,29.72,4.74,26.47,1015.66,2034.78,3209.11,3152.22,3420.08,349.89,346.29,3.36,0000 0000 0000 0000 000000
2015-04-14 01:42:33,0.19,0.58,0.00,24.06,26.95,29.58,4.70,26.40,1015.65,2034.94,3206.89,3150.64,3418.45,350.01,346.04,3.39,0000 0000 0000 0000 000000
2015-04-14 01:47:35,0.22,0.58,0.00,24.27,26.95,29.46,4.75,26.34,1015.65,2034.96,3204.36,3148.80,3416.39,349.66,345.60,3.41,0000 0000 0000 0000 000000
2015-04-14 01:52:36,0.17,0.59,0.00,24.63,26.94,29.51,4.69,26.43,1015.68,2034.97,3202.08,3146.99,3414.47,349.85,345.32,3.44,0000 0000 0000 0000 000000
2015-04-14 01:57:37,0.17,0.59,0.00,24.64,26.95,29.58,4.73,26.41,1015.70,2034.97,3200.07,3145.60,3412.87,349.62,345.00,3.47,0000 0000 0000 0000 000000
2015-04-14 02:02:39,0.16,0.60,0.00,24.25,26.95,29.69,4.76,26.32,1015.76,2034.94,3197.87,3143.97,3411.10,350.50,346.48,3.50,0000 0000 0000 0000 000000
2015-04-14 02:07:40,0.17,0.60,0.00,24.05,26.95,29.76,4.75,26.33,1015.95,2034.86,3195.60,3142.44,3409.46,349.46,345.65,3.53,0000 0000 0000 0000 000000
2015-04-14 02:12:41,0.14,0.61,0.00,23.95,26.95,29.72,4.75,26.31,1015.84,2034.73,3193.48,3140.97,3407.88,350.17,346.20,3.56,0000 0000 0000 0000 000000
2015-04-14 02:17:43,0.19,0.61,0.00,23.89,26.93,29.71,4.78,26.37,1015.76,2034.88,3191.42,3139.53,3406.34,350.30,346.72,3.59,0000 0000 0000 0000 000000
2015-04-14 02:22:44,0.16,0.62,0.00,23.85,26.92,29.66,4.78,26.51,1015.69,2034.92,3189.37,3138.13,3404.72,350.16,346.54,3.62,0000 0000 0000 0000 000000
2015-04-14 02:27:46,0.17,0.62,0.00,23.80,26.90,29.63,4.68,26.37,1015.66,2034.97,3187.25,3136.74,3403.26,349.70,346.28,3.65,0000 0000 0000 0000 000000
2015-04-14 02:32:47,0.15,0.63,0.00,23.82,26.88,29.59,4.69,26.43,1015.67,2034.99,3185.28,3135.43,3401.75,349.90,346.31,3.68,0000 0000 0000 0000 000000
2015-04-14 02:37:48,0.11,0.63,0.00,23.92,26.87,29.54,4.73,26.47,1015.68,2034.99,3183.67,3134.52,3400.65,350.17,346.48,3.71,0000 0000 0000 0000 000000
2015-04-14 02:42:50,0.14,0.63,0.00,24.22,26.85,29.37,4.76,26.43,1015.66,2034.99,3181.77,3133.37,3399.30,350.00,346.06,3.74,0000 0000 0000 0000 000000
2015-04-14 02:47:51,0.21,0.64,0.00,24.59,26.85,29.43,4.64,26.30,1015.65,2034.99,3179.09,3131.68,3397.43,349.72,345.23,3.77,0000 0000 0000 0000 000000
2015-04-14 02:52:52,0.25,0.65,0.00,24.73,26.85,29.46,4.71,26.26,1015.66,2034.99,3175.72,3129.67,3395.27,350.43,345.77,3.80,0000 0000 0000 0000 000000
2015-04-14 02:57:53,0.26,0.65,0.00,24.33,26.85,29.55,4.83,26.40,1015.67,2034.99,3172.25,3127.65,3392.99,351.09,346.89,3.82,0000 0000 0000 0000 000000
2015-04-14 03:02:55,0.17,0.66,0.00,24.16,26.85,29.64,4.73,26.22,1015.72,2034.99,3169.32,3125.93,3391.28,350.33,346.26,3.85,0000 0000 0000 0000 000000
2015-04-14 03:07:56,0.16,0.67,0.00,24.09,26.85,29.65,4.71,26.39,1015.78,2034.99,3167.34,3124.64,3389.98,350.08,346.21,3.88,0000 0000 0000 0000 000000
2015-04-14 03:12:57,0.18,0.67,0.00,24.01,26.83,29.59,4.76,26.26,1015.79,2034.99,3165.02,3123.04,3388.25,350.23,346.63,3.91,0000 0000 0000 0000 000000
2015-04-14 03:17:58,0.18,0.68,0.00,23.94,26.82,29.57,4.71,26.43,1015.81,2034.99,3162.98,3121.54,3386.61,349.82,346.07,3.94,0000 0000 0000 0000 000000
2015-04-14 03:22:59,0.13,0.68,0.00,23.96,26.81,29.54,4.72,26.48,1015.78,2034.99,3161.18,3120.38,3385.28,349.48,346.00,3.97,0000 0000 0000 0000 000000
2015-04-14 03:28:00,0.14,0.68,0.00,23.93,26.80,29.53,4.77,26.36,1015.70,2034.99,3159.44,3119.20,3383.90,349.74,346.02,4.00,0000 0000 0000 0000 000000
2015-04-14 03:33:02,0.15,0.69,0.00,23.91,26.78,29.53,4.72,26.40,1015.66,2035.02,3157.55,3117.88,3382.56,349.88,346.17,4.03,0000 0000 0000 0000 000000
2015-04-14 03:38:03,0.13,0.69,0.00,23.92,26.77,29.50,4.77,26.37,1015.68,2035.02,3155.80,3116.75,3381.18,349.65,346.05,4.06,0000 0000 0000 0000 000000
2015-04-14 03:43:04,0.14,0.70,0.00,23.92,26.75,29.51,4.77,26.33,1015.70,2035.04,3154.10,3115.65,3379.94,349.90,346.22,4.09,0000 0000 0000 0000 000000
2015-04-14 03:48:05,0.14,0.70,0.00,23.90,26.75,29.51,4.77,26.34,1015.77,2035.11,3152.48,3114.55,3378.68,350.40,346.75,4.12,0000 0000 0000 0000 000000
2015-04-14 03:53:06,0.14,0.71,0.00,23.91,26.73,29.46,4.77,26.40,1015.75,2035.12,3150.68,3113.35,3377.39,350.55,346.89,4.15,0000 0000 0000 0000 000000
2015-04-14 03:58:08,0.23,0.71,0.00,23.94,26.72,29.47,4.67,26.43,1015.69,2035.61,3149.00,3112.15,3376.12,349.21,345.53,4.18,0000 0000 0000 0000 000000
2015-04-14 04:03:09,0.15,0.72,0.00,23.91,26.70,29.46,4.72,26.37,1015.70,2035.81,3147.24,3111.00,3374.82,349.70,345.74,4.21,0000 0000 0000 0000 000000
2015-04-14 04:08:10,0.14,0.72,0.00,23.92,26.70,29.46,4.74,26.35,1015.78,2035.93,3145.68,3109.94,3373.60,349.51,345.84,4.23,0000 0000 0000 0000 000000
2015-04-14 04:13:11,0.14,0.73,0.00,23.94,26.68,29.46,4.75,26.30,1015.97,2035.92,3144.02,3108.77,3372.36,349.58,345.95,4.26,0000 0000 0000 0000 000000
2015-04-14 04:18:12,0.17,0.73,0.00,23.92,26.67,29.46,4.73,26.41,1016.04,2035.94,3142.01,3107.32,3370.66,350.29,346.70,4.29,0000 0000 0000 0000 000000
2015-04-14 04:23:14,0.14,0.74,0.00,23.91,26.66,29.47,4.78,26.40,1016.06,2035.96,3140.22,3105.95,3369.20,349.70,346.34,4.32,0000 0000 0000 0000 000000
2015-04-14 04:28:15,0.13,0.74,0.00,23.93,26.65,29.44,4.75,26.34,1016.10,2035.98,3138.65,3104.86,3367.96,349.88,346.30,4.35,0000 0000 0000 0000 000000
2015-04-14 04:33:17,0.13,0.74,0.00,23.91,26.64,29.47,4.73,26.40,1016.12,2035.98,3137.12,3103.74,3366.78,349.88,346.41,4.38,0000 0000 0000 0000 000000
2015-04-14 04:38:18,0.11,0.75,0.00,23.94,26.62,29.43,4.72,26.41,1016.11,2035.98,3135.71,3102.76,3365.72,350.09,346.43,4.41,0000 0000 0000 0000 000000
2015-04-14 04:43:19,0.11,0.75,0.00,23.92,26.62,29.45,4.73,26.36,1016.13,2035.98,3134.55,3101.73,3364.59,349.85,346.29,4.44,0000 0000 0000 0000 000000
2015-04-14 04:48:21,0.11,0.75,0.00,23.95,26.62,29.45,4.75,26.46,1016.11,2035.99,3133.15,3100.78,3363.51,349.67,346.04,4.47,0000 0000 0000 0000 000000
2015-04-14 04:53:22,0.15,0.76,0.00,23.95,26.60,29.45,4.75,26.40,1016.04,2035.99,3131.44,3099.55,3362.11,350.19,346.50,4.50,0000 0000 0000 0000 000000
2015-04-14 04:58:23,0.13,0.76,0.00,23.92,26.60,29.46,4.80,26.38,1015.88,2035.99,3129.80,3098.39,3360.81,350.42,346.79,4.53,0000 0000 0000 0000 000000
2015-04-14 05:03:25,0.18,0.77,0.00,23.96,26.60,29.45,4.80,26.43,1015.96,2035.99,3127.89,3096.93,3359.19,350.49,346.56,4.56,0000 0000 0000 0000 000000
2015-04-14 05:08:26,0.15,0.77,0.00,23.93,26.59,29.45,4.76,26.39,1016.09,2035.99,3125.92,3095.55,3357.63,349.99,346.45,4.59,0000 0000 0000 0000 000000
2015-04-14 05:13:27,0.12,0.77,0.00,23.92,26.57,29.43,4.76,26.40,1016.11,2035.99,3124.48,3094.47,3356.48,349.98,346.60,4.62,0000 0000 0000 0000 000000
2015-04-14 05:18:28,0.11,0.78,0.00,23.94,26.57,29.41,4.72,26.42,1016.10,2035.99,3122.95,3093.45,3355.35,349.91,346.29,4.65,0000 0000 0000 0000 000000
2015-04-14 05:23:29,0.11,0.78,0.00,23.96,26.57,29.45,4.74,26.48,1016.12,2035.99,3121.60,3092.42,3354.26,349.69,346.19,4.67,0000 0000 0000 0000 000000
2015-04-14 05:28:30,0.10,0.79,0.00,23.97,26.57,29.45,4.71,26.43,1016.12,2035.99,3120.34,3091.57,3353.23,349.44,345.85,4.70,0000 0000 0000 0000 000000
2015-04-14 05:33:32,0.12,0.79,0.00,23.94,26.57,29.44,4.77,26.69,1016.12,2035.99,3118.91,3090.58,3352.19,349.46,346.05,4.73,0000 0000 0000 0000 000000
2015-04-14 05:38:33,0.12,0.79,0.00,23.97,26.56,29.42,4.76,26.32,1016.13,2035.99,3117.48,3089.44,3350.87,350.02,346.38,4.76,0000 0000 0000 0000 000000
2015-04-14 05:43:35,0.12,0.80,0.00,23.95,26.55,29.43,4.72,26.36,1016.13,2035.99,3116.02,3088.41,3349.68,349.85,346.40,4.79,0000 0000 0000 0000 000000
2015-04-14 05:48:36,0.12,0.80,0.00,23.96,26.55,29.41,4.83,26.48,1016.13,2036.00,3114.60,3087.38,3348.63,350.77,347.20,4.82,0000 0000 0000 0000 000000
2015-04-14 05:53:37,0.11,0.80,0.00,23.97,26.55,29.42,4.73,26.40,1016.13,2036.00,3113.13,3086.40,3347.51,349.68,346.10,4.85,0000 0000 0000 0000 000000
2015-04-14 05:58:38,0.13,0.81,0.00,23.97,26.55,29.40,4.78,26.36,1016.13,2036.01,3111.64,3085.34,3346.40,350.55,346.95,4.88,0000 0000 0000 0000 000000
2015-04-14 06:03:40,0.15,0.81,0.00,23.96,26.55,29.40,4.65,26.34,1016.13,2036.01,3109.83,3084.02,3344.89,349.66,346.07,4.91,0000 0000 0000 0000 000000
2015-04-14 06:08:41,0.14,0.82,0.00,23.96,26.55,29.39,4.80,26.13,1016.13,2036.02,3108.10,3082.80,3343.60,350.40,346.78,4.94,0000 0000 0000 0000 000000
2015-04-14 06:13:43,0.15,0.82,0.00,23.97,26.55,29.40,4.71,26.17,1016.13,2036.03,3106.40,3081.56,3342.13,349.98,346.31,4.97,0000 0000 0000 0000 000000
2015-04-14 06:18:44,0.14,0.82,0.00,23.95,26.55,29.41,4.71,26.18,1016.13,2036.02,3104.65,3080.31,3340.66,350.38,346.67,5.00,0000 0000 0000 0000 000000
2015-04-14 06:23:45,0.14,0.83,0.00,23.94,26.55,29.43,4.76,26.23,1016.13,2036.01,3102.93,3078.96,3339.32,349.80,346.12,5.03,0000 0000 0000 0000 000000
2015-04-14 06:28:46,0.14,0.83,0.00,23.97,26.54,29.42,4.70,26.31,1016.14,2036.02,3101.33,3077.75,3337.94,349.30,346.07,5.06,0000 0000 0000 0000 000000
2015-04-14 06:33:48,0.15,0.84,0.00,23.97,26.54,29.43,4.75,26.44,1016.22,2036.02,3099.64,3076.49,3336.55,350.03,346.66,5.08,0000 0000 0000 0000 000000
2015-04-14 06:38:49,0.15,0.84,0.00,23.98,26.53,29.42,4.77,26.28,1016.28,2036.02,3097.86,3075.08,3335.03,350.00,346.38,5.11,0000 0000 0000 0000 000000
2015-04-14 06:43:51,0.17,0.85,0.00,23.94,26.52,29.42,4.72,26.37,1016.34,2036.03,3095.97,3073.64,3333.40,350.03,346.44,5.14,0000 0000 0000 0000 000000
2015-04-14 06:48:52,0.12,0.85,0.00,23.98,26.52,29.42,4.72,26.30,1016.51,2036.01,3094.41,3072.49,3332.13,349.67,346.21,5.17,0000 0000 0000 0000 000000
2015-04-14 06:53:53,0.10,0.85,0.00,23.95,26.52,29.40,4.81,26.35,1016.58,2036.01,3093.05,3071.54,3331.05,350.32,346.77,5.20,0000 0000 0000 0000 000000
2015-04-14 06:58:54,0.10,0.86,0.00,23.95,26.52,29.38,4.75,26.31,1016.58,2036.01,3091.76,3070.80,3330.06,350.26,346.72,5.23,0000 0000 0000 0000 000000
2015-04-14 07:03:55,0.10,0.86,0.00,23.97,26.52,29.40,4.71,26.27,1016.61,2036.03,3090.43,3069.90,3329.03,349.76,346.35,5.26,0000 0000 0000 0000 000000
2015-04-14 07:08:57,0.12,0.86,0.00,23.97,26.52,29.40,4.82,26.36,1016.61,2036.02,3088.91,3068.87,3327.94,350.49,346.97,5.29,0000 0000 0000 0000 000000
2015-04-14 07:13:58,0.20,0.87,0.00,23.99,26.52,29.40,4.79,26.35,1016.62,2036.02,3086.73,3067.55,3326.53,350.19,346.51,5.32,0000 0000 0000 0000 000000
2015-04-14 07:18:59,0.41,0.88,0.00,23.97,26.52,29.41,4.76,26.38,1016.62,2036.01,3081.40,3064.69,3323.50,350.53,346.80,5.35,0000 0000 0000 0000 000000
2015-04-14 07:24:00,0.25,0.89,0.00,23.97,26.52,29.42,4.75,26.36,1016.62,2036.03,3077.35,3062.42,3320.99,349.61,346.17,5.38,0000 0000 0000 0000 000000
2015-04-14 07:29:01,0.18,0.89,0.00,23.98,26.52,29.38,4.73,26.36,1016.62,2036.02,3075.13,3060.82,3319.31,349.87,346.41,5.41,0000 0000 0000 0000 000000
2015-04-14 07:34:03,0.23,0.90,0.00,24.00,26.52,29.38,4.73,26.37,1016.62,2036.00,3072.56,3058.98,3317.29,349.48,345.97,5.44,0000 0000 0000 0000 000000
2015-04-14 07:39:04,0.19,0.91,0.00,23.99,26.52,29.40,4.78,26.36,1016.62,2036.00,3070.14,3057.13,3315.25,350.24,346.61,5.46,0000 0000 0000 0000 000000
2015-04-14 07:44:05,0.18,0.91,0.00,23.99,26.52,29.41,4.73,26.39,1016.62,2036.01,3068.10,3055.80,3313.76,350.00,346.53,5.49,0000 0000 0000 0000 000000
2015-04-14 07:49:06,0.16,0.92,0.00,23.98,26.52,29.39,4.71,26.47,1016.63,2036.01,3066.03,3054.41,3312.29,349.54,346.15,5.52,0000 0000 0000 0000 000000
2015-04-14 07:54:07,0.17,0.92,0.00,24.01,26.52,29.41,4.83,26.46,1016.63,2036.02,3064.09,3052.99,3310.77,350.66,346.95,5.55,0000 0000 0000 0000 000000
2015-04-14 07:59:09,0.16,0.93,0.00,24.04,26.52,29.39,4.70,26.38,1016.73,2036.01,3062.23,3051.64,3309.28,349.89,346.40,5.58,0000 0000 0000 0000 000000
2015-04-14 08:04:10,0.19,0.93,0.00,24.05,26.52,29.37,4.70,26.41,1016.75,2036.01,3060.15,3050.02,3307.49,349.80,346.31,5.61,0000 0000 0000 0000 000000
2015-04-14 08:09:11,0.26,0.94,0.00,24.05,26.52,29.34,4.79,26.38,1016.67,2036.01,3057.55,3047.86,3305.14,350.50,346.97,5.64,0000 0000 0000 0000 000000
2015-04-14 08:14:12,0.25,0.95,0.00,24.06,26.52,29.34,4.76,26.43,1016.72,2036.01,3054.97,3045.59,3302.67,350.15,346.55,5.67,0000 0000 0000 0000 000000
2015-04-14 08:19:14,0.27,0.95,0.00,24.09,26.52,29.32,4.78,26.52,1016.76,2036.01,3052.03,3043.29,3300.15,350.82,347.21,5.70,0000 0000 0000 0000 000000
2015-04-14 08:24:15,0.49,0.97,0.00,24.10,26.52,29.35,4.75,26.39,1016.79,2036.01,3047.05,3039.60,3296.15,350.10,346.56,5.73,0000 0000 0000 0000 000000
2015-04-14 08:29:16,0.45,0.98,0.00,24.09,26.52,29.34,4.73,26.36,1016.95,2036.00,3041.40,3035.63,3291.86,349.85,346.20,5.76,0000 0000 0000 0000 000000
2015-04-14 08:34:17,0.32,0.99,0.00,24.13,26.52,29.39,4.72,26.49,1017.06,2036.01,3037.17,3032.68,3288.64,349.60,346.14,5.79,0000 0000 0000 0000 000000
2015-04-14 08:39:19,0.21,1.00,0.00,24.12,26.53,29.39,4.72,26.41,1017.05,2036.00,3034.56,3030.70,3286.55,349.91,346.54,5.82,0000 0000 0000 0000 000000
2015-04-14 08:44:20,0.15,1.00,0.00,24.11,26.54,29.43,4.79,26.49,1017.08,2036.01,3032.64,3029.33,3284.93,349.75,346.35,5.85,0000 0000 0000 0000 000000
2015-04-14 08:49:21,0.16,1.01,0.00,24.11,26.55,29.45,4.74,26.40,1017.09,2036.01,3030.86,3027.95,3283.55,349.90,346.38,5.88,0000 0000 0000 0000 000000
2015-04-14 08:54:22,0.23,1.02,0.00,24.09,26.55,29.47,4.77,26.44,1017.10,2036.01,3028.43,3026.17,3281.56,350.27,346.84,5.90,0000 0000 0000 0000 000000
2015-04-14 08:59:24,0.23,1.02,0.00,24.05,26.55,29.49,4.75,26.48,1017.10,2036.00,3025.66,3024.09,3279.36,349.80,346.40,5.93,0000 0000 0000 0000 000000
2015-04-14 09:04:25,0.27,1.03,0.00,24.06,26.55,29.50,4.77,26.38,1017.10,2036.00,3022.89,3022.05,3277.13,350.60,347.20,5.96,0000 0000 0000 0000 000000
2015-04-14 09:09:26,0.28,1.04,0.00,24.07,26.56,29.50,4.81,26.47,1017.10,2036.00,3019.65,3019.60,3274.54,350.25,346.85,5.99,0000 0000 0000 0000 000000
2015-04-14 09:14:27,0.22,1.05,0.00,24.03,26.56,29.49,4.69,26.38,1017.10,2036.00,3016.83,3017.52,3272.28,349.20,345.95,6.02,0000 0000 0000 0000 000000
2015-04-14 09:19:29,0.25,1.05,0.00,23.98,26.57,29.48,4.74,26.36,1017.11,2036.00,3014.17,3015.51,3270.10,350.07,346.62,6.05,0000 0000 0000 0000 000000
2015-04-14 09:24:31,0.26,1.06,0.00,24.01,26.56,29.46,4.80,26.24,1017.13,2036.00,3011.14,3013.32,3267.79,350.00,346.77,6.08,0000 0000 0000 0000 000000
2015-04-14 09:29:32,0.24,1.07,0.00,24.01,26.55,29.44,4.72,26.36,1017.15,2036.00,3008.28,3011.25,3265.55,349.85,346.65,6.11,0000 0000 0000 0000 000000
2015-04-14 09:34:34,0.31,1.08,0.00,23.98,26.55,29.43,4.71,26.52,1017.18,2036.00,3005.04,3008.78,3262.99,350.36,347.09,6.14,0000 0000 0000 0000 000000
2015-04-14 09:39:35,0.36,1.09,0.00,23.98,26.55,29.44,4.78,26.39,1017.26,2036.00,3000.87,3006.02,3259.93,350.25,347.02,6.17,0000 0000 0000 0000 000000
2015-04-14 09:44:36,0.39,1.10,0.00,24.03,26.55,29.45,4.70,26.36,1017.33,2036.00,2996.23,3003.01,3256.71,349.57,346.39,6.20,0000 0000 0000 0000 000000
2015-04-14 09:49:38,0.59,1.11,0.00,23.98,26.55,29.44,4.69,26.41,1017.44,2036.00,2989.70,2998.70,3252.12,349.40,346.18,6.23,0000 0000 0000 0000 000000
2015-04-14 09:54:40,1.03,1.13,0.00,23.96,26.55,29.44,4.76,26.49,1017.55,2036.00,2979.27,2991.59,3244.57,350.19,346.90,6.26,0000 0000 0000 0000 000000
2015-04-14 09:59:41,0.73,1.16,0.67,23.97,26.53,29.42,4.72,26.41,1017.57,2036.00,2969.45,2984.74,3237.36,349.88,346.76,6.29,0000 0000 0000 0000 000000
2015-04-14 10:04:42,0.93,1.19,1.00,23.97,26.52,29.38,4.64,26.40,1017.51,2036.00,2959.71,2977.67,3229.82,349.34,346.47,6.31,0000 0000 0000 0000 000000
2015-04-14 10:09:44,0.86,1.21,1.00,23.94,26.52,29.38,4.75,26.41,1017.54,2036.00,2949.71,2970.24,3222.05,350.20,346.99,6.34,0000 0000 0000 0000 000000
2015-04-14 10:14:45,0.58,1.23,1.00,23.93,26.52,29.36,4.75,26.49,1017.59,2036.00,2942.86,2965.07,3216.60,350.69,347.82,6.37,0000 0000 0000 0000 000000
2015-04-14 10:19:46,0.58,1.25,1.00,23.93,26.52,29.35,4.74,26.43,1017.59,2036.00,2936.69,2960.38,3211.61,350.04,346.96,6.40,0000 0000 0000 0000 000000
2015-04-14 10:24:47,0.59,1.27,1.00,23.95,26.51,29.36,4.68,26.46,1017.59,2036.00,2930.37,2955.56,3206.47,349.26,346.26,6.43,0000 0000 0000 0000 000000
2015-04-14 10:29:48,0.54,1.28,1.00,23.92,26.50,29.32,4.78,26.43,1017.59,2036.00,2924.52,2951.16,3201.83,350.59,347.25,6.46,0000 0000 0000 0000 000000
2015-04-14 10:34:50,0.66,1.30,1.00,23.93,26.50,29.31,4.81,26.66,1017.59,2036.00,2917.71,2946.16,3196.63,350.12,347.00,6.49,0000 0000 0000 0000 000000
2015-04-14 10:39:51,0.70,1.32,1.00,23.94,26.50,29.30,4.73,26.45,1017.59,2036.00,2909.94,2940.50,3190.63,349.49,346.41,6.52,0000 0000 0000 0000 000000
2015-04-14 10:44:52,0.74,1.34,1.00,23.93,26.50,29.30,4.73,26.43,1017.59,2036.00,2902.01,2934.72,3184.52,350.09,346.81,6.55,0000 0000 0000 0000 000000
2015-04-14 10:49:53,0.70,1.36,1.00,23.95,26.50,29.31,4.72,26.45,1017.60,2036.00,2894.25,2929.02,3178.52,350.41,347.27,6.58,0000 0000 0000 0000 000000
2015-04-14 10:54:55,0.55,1.38,1.00,23.96,26.50,29.32,4.72,26.43,1017.60,2036.00,2887.85,2924.37,3173.62,350.24,347.24,6.61,0000 0000 0000 0000 000000
2015-04-14 10:59:56,0.52,1.40,1.00,23.96,26.49,29.31,4.72,26.30,1017.60,2036.00,2882.35,2920.39,3169.38,349.98,346.81,6.64,0000 0000 0000 0000 000000
2015-04-14 11:04:58,0.61,1.42,1.00,23.99,26.48,29.32,4.68,26.49,1017.60,2036.00,2875.89,2915.61,3164.36,349.12,346.16,6.67,0000 0000 0000 0000 000000
2015-04-14 11:09:59,0.47,1.43,1.00,23.98,26.47,29.36,4.73,26.43,1017.60,2036.00,2870.39,2911.66,3160.14,350.33,346.95,6.70,0000 0000 0000 0000 000000
2015-04-14 11:15:00,0.49,1.44,1.00,23.99,26.47,29.35,4.73,26.49,1017.61,2036.00,2865.16,2907.85,3156.18,350.15,346.92,6.72,0000 0000 0000 0000 000000
2015-04-14 11:20:02,0.52,1.46,1.00,23.92,26.47,29.34,4.83,26.46,1017.61,2036.00,2859.59,2903.84,3151.91,350.46,347.47,6.75,0000 0000 0000 0000 000000
2015-04-14 11:25:03,0.45,1.47,1.00,23.89,26.47,29.31,4.76,26.49,1017.62,2036.00,2854.67,2900.23,3148.13,350.21,347.20,6.78,0000 0000 0000 0000 000000
2015-04-14 11:30:05,0.47,1.49,1.00,23.86,26.47,29.34,4.76,26.42,1017.64,2036.00,2849.63,2896.63,3144.30,349.66,346.76,6.81,0000 0000 0000 0000 000000
2015-04-14 11:35:06,0.45,1.50,1.00,23.82,26.47,29.32,4.77,26.59,1017.63,2036.00,2844.64,2893.09,3140.64,350.17,347.24,6.84,0000 0000 0000 0000 000000
2015-04-14 11:40:07,0.40,1.52,1.00,23.81,26.47,29.34,4.76,26.36,1017.74,2036.00,2840.26,2889.91,3137.23,349.90,347.07,6.87,0000 0000 0000 0000 000000
2015-04-14 11:45:08,0.36,1.53,1.00,23.77,26.46,29.31,4.80,26.64,1017.85,2036.00,2836.15,2886.98,3134.31,349.97,347.15,6.90,0000 0000 0000 0000 000000
2015-04-14 11:50:10,0.47,1.54,1.00,23.79,26.45,29.30,4.74,26.37,1018.04,2036.00,2831.50,2883.55,3130.66,349.99,347.20,6.93,0000 0000 0000 0000 000000
2015-04-14 11:55:11,0.29,1.55,1.00,24.02,26.45,29.28,4.73,26.41,1018.06,2036.00,2828.09,2880.98,3127.90,349.66,346.55,6.96,0000 0000 0000 0000 000000
2015-04-14 12:00:12,0.24,1.56,0.23,24.02,26.45,29.21,4.77,26.56,1018.07,2036.00,2825.39,2879.10,3125.74,350.03,346.90,6.99,0000 0000 0000 0000 000000
2015-04-14 12:05:14,0.22,1.56,0.00,24.26,26.47,29.17,4.76,26.48,1018.08,2036.00,2822.99,2877.43,3123.83,350.18,346.85,7.02,0000 0000 0000 0000 000000
2015-04-14 12:10:15,0.20,1.57,0.00,24.59,26.49,29.10,4.77,26.50,1018.08,2035.99,2820.86,2875.82,3122.06,350.42,346.74,7.05,0000 0000 0000 0000 000000
2015-04-14 12:15:16,0.18,1.58,0.00,24.26,26.51,29.20,4.71,26.56,1018.08,2035.97,2818.96,2874.40,3120.55,349.74,346.44,7.08,0000 0000 0000 0000 000000
2015-04-14 12:20:18,0.15,1.58,0.00,24.01,26.53,29.50,4.80,26.62,1018.08,2035.82,2817.00,2872.98,3119.03,350.47,347.44,7.11,0000 0000 0000 0000 000000
2015-04-14 12:25:19,0.19,1.59,0.00,23.89,26.55,29.54,4.76,26.42,1018.09,2035.81,2815.12,2871.58,3117.43,350.09,347.14,7.13,0000 0000 0000 0000 000000
2015-04-14 12:30:20,0.12,1.59,0.00,23.81,26.55,29.52,4.76,26.45,1018.11,2035.69,2813.49,2870.32,3116.04,350.10,347.33,7.16,0000 0000 0000 0000 000000
2015-04-14 12:35:21,0.09,1.59,0.00,23.75,26.55,29.49,4.76,26.55,1018.12,2035.34,2811.82,2869.25,3114.79,350.03,347.39,7.19,0000 0000 0000 0000 000000
2015-04-14 12:40:22,0.13,1.60,0.00,23.70,26.55,29.47,4.70,26.42,1018.10,2035.36,2810.58,2868.32,3113.82,349.82,347.19,7.22,0000 0000 0000 0000 000000
2015-04-14 12:45:23,0.13,1.60,0.00,23.98,26.55,29.40,4.78,26.43,1018.10,2035.40,2809.34,2867.47,3112.96,350.12,347.11,7.25,0000 0000 0000 0000 000000
2015-04-14 12:50:24,0.08,1.60,0.00,23.97,26.55,29.34,4.74,26.43,1018.11,2035.33,2808.30,2866.61,3111.81,350.03,347.04,7.28,0000 0000 0000 0000 000000
2015-04-14 12:55:26,0.12,1.61,0.00,24.33,26.57,29.32,4.79,26.45,1018.16,2035.08,2806.74,2865.42,3110.51,350.03,346.56,7.31,0000 0000 0000 0000 000000
2015-04-14 13:00:27,0.15,1.61,0.00,24.37,26.57,29.34,4.73,26.43,1018.25,2035.04,2805.03,2864.16,3109.15,350.20,346.76,7.34,0000 0000 0000 0000 000000
2015-04-14 13:05:29,0.18,1.62,0.00,23.92,26.59,29.45,4.68,26.48,1018.43,2035.00,2803.20,2862.86,3107.74,349.37,346.35,7.37,0000 0000 0000 0000 000000